Terminal Aerodrome Forecast
Issued by NWS

Home | Current Version | Previous Version | Text Only | Print | Product List | Glossary On
Versions: 1 2 3 4 5 6 7 8 9 10 11 12 13 14 15 16 17 18 19 20 21 22 23 24 25 26 27 28 29 30 31 32 33 34 35 36 37 38 39 40 41 42 43 44 45 46 47 48 49 50
000
FTUS43 KDMX 081120
TAFMCW
TAF
KMCW 081120Z 0812/0912 32025G36KT 3SM -SN BLSN SCT015 OVC025
      TEMPO 0812/0816 1/2SM SN BLSN OVC015
     FM082200 33018G25KT 4SM BLSN OVC020=

USA.gov is the U.S. government's official web portal to all federal, state and local government web resources and services.